Tracking 19170 objects as of 23-May-2018
HD Live streaming from Space Station
objects crossing your sky now

ANIK A1 (TELESAT 1)

Track ANIK A1 (TELESAT 1) now!
ANIK A1 (TELESAT 1) is classified as:


NORAD ID: 6278
Int'l Code: 1972-090A
Perigee: 36,148.2 km
Apogee: 36,258.7 km
Inclination: 12.6 °
Period: 1,457.1 minutes
Semi major axis: 42574 km
RCS: 3.1432 m2 (large)
Launch date: November 10, 1972
Source: Canada (CA)
Launch site: AIR FORCE EASTERN TEST RANGE (AFETR)
aabbcc
Your satellite tracking list
Your tracking list is empty




NASA's NSSDC Master Catalog

Two Line Element Set (TLE):
1  6278U 72090A   18142.67235118 -.00000034 +00000-0 +00000-0 0  9998
2  6278 012.6460 322.7105 0012982 112.5675 260.8238 00.98827883089923
Source of the keplerian elements: AFSPC